Regional Weather Roundup
Issued by NWS

Home | Current Version | Previous Version | Text Only | Print | Product List | Glossary On
Versions: 1 2 3 4 5 6 7 8 9 10 11 12 13 14 15 16 17 18 19 20 21 22 23 24 25 26 27
000
ASUS42 KTBW 242317
RWRFL
FLORIDA REGIONAL WEATHER ROUNDUP
NATIONAL WEATHER SERVICE TAMPA BAY RUSKIN FL
700 PM EDT TUE MAY 24 2016

NOTE: "FAIR" INDICATES FEW OR NO CLOUDS BELOW 12,000 FEET WITH NO
SIGNIFICANT WEATHER AND/OR OBSTRUCTIONS TO VISIBILITY.

FLZ001>010-012>015-112-114-115-250000-
PANHANDLE FLORIDA

CITY           SKY/WX    TMP DP  RH WIND       PRES   REMARKS
PENSACOLA      SUNNY     82  57  42 S10       30.09S
PENSACOLA NAS  MOSUNNY   80  61  52 SW10      30.10S
MILTON NAS     MOSUNNY   82  57  42 SW12      30.10
CRESTVIEW      SUNNY     85  54  34 SW10      30.10S
DUKE FIELD     MOSUNNY   84  52  33 SW12      30.09S
VALPARAISO     MOSUNNY   82  58  43 SW8       30.09S
MARY ESTHER    SUNNY     81  61  50 SW8       30.08S
TRI COUNTY     FAIR      86  54  33 NE5       30.09S
PANAMA CITY    FAIR      83  56  39 S12       30.09R
TYNDALL AFB    SUNNY     81  64  57 SW7       30.09S
APALACHICOLA   SUNNY     80  67  64 SW7       30.09F

STATION/POSITION SKY/WX   TEMP    WIND        PRES    WAVE   SWELL
                          AIR SEA DIR/SP/G            HT/PER HT/PER
                          (F)     (DEG/KT/KT) (MB)    (FT/S) (FT/S)
30.1N   87.6W              78 80  140/ 10/ 10 1018.9    1
29.2N   88.2W              78 78  130/ 12/ 14 1018.9F
28.8N   86.0W              78 81  120/  4/  6 1019.7    1
PANAMA CITY BEAC           80                   N/A
TOWER C                    77     190/  6/  7 1019.8F
28.5N   84.5W              78 81   10/  2/  4 1019.0    0

$$
FLZ011-016>038-118-127-128-134-139-239-250000-
NORTH FLORIDA

CITY           SKY/WX    TMP DP  RH WIND       PRES   REMARKS
MARIANNA       SUNNY     86  52  30 S5        30.08S
TALLAHASSEE    MOSUNNY   88  56  33 S6        30.08S
PERRY          MOSUNNY   85  62  45 SW7       30.09S
LIVE OAK       FAIR      88  59  37 CALM      30.10S
CROSS CITY       N/A     86  64  47 NW8       30.06F
LAKE CITY      FAIR      82  61  47 SE9       30.09S
GAINESVILLE    SUNNY     83  58  42 E10       30.09S
WILLISTON      FAIR      84  61  45 E8        30.08F
PALATKA        FAIR      82  57  42 SE12G18   30.11F
MAYPORT NAS    PTSUNNY   79  63  57 SE13      30.12F
JACKSONVILLE   PTSUNNY   81  58  45 SE12      30.10F
JAX NAS        CLOUDY    84  57  39 SE14      30.12S
JAX CECIL      SUNNY     82  57  42 SE12      30.11F
FERNANDINA BEA FAIR      81  61  50 SE7       30.11F
ST AUGUSTINE   SUNNY     80  63  55 SE10      30.13S
PALM COAST     SUNNY     81  61  50 SE10      30.12F

STATION/POSITION SKY/WX   TEMP    WIND        PRES    WAVE   SWELL
                          AIR SEA DIR/SP/G            HT/PER HT/PER
                          (F)     (DEG/KT/KT) (MB)    (FT/S) (FT/S)
SHELL POINT                81     190/  8/ 12 1017.6
KEATON BEACH               80     260/  8/  9 1018.3F
CEDAR KEY                  82     310/  6/  8 1018.9F
FERNANDINA                 80                   N/A
30.7N   81.3W                 79                N/A     2/ 9
MAYPORT                    80                   N/A
31.4N   80.9W              76 77  130/ 10/ 12 1020.4    2/ 9   2/ 9
ST AUGUSTINE               78 81  130/ 12/ 13 1021.1F

$$
FLZ040-043>046-052-053-057-058-063-144-250000-
INTERIOR CENTRAL FLORIDA

CITY           SKY/WX    TMP DP  RH WIND       PRES   REMARKS
OCALA          SUNNY     82  59  44 SE7       30.09F
THE VILLAGES     N/A     84  61  45 MISG      29.99F
LEESBURG       SUNNY     83  57  41 SE17G24   30.11S
SANFORD        SUNNY     83  56  39 SE13      30.12S
ORLANDO EXEC   MOSUNNY   82  58  43 E14       30.12S
ORLANDO INTL   MOSUNNY   81  56  42 E17       30.12S
KISSIMMEE      MOSUNNY   82  57  42 E17       30.11S
WINTER HAVEN   SUNNY     83  59  44 E12G21    30.11R
LAKELAND       MOSUNNY   84  68  58 E18       30.09R
BARTOW         FAIR      81  63  54 E13       30.10S
OKEECHOBEE     MOSUNNY   79  70  73 E9G16     30.08F

$$
FLZ041-047-054-059-064-141-147-250000-
EAST CENTRAL FLORIDA

CITY           SKY/WX    TMP DP  RH WIND       PRES   REMARKS
ORMOND BEACH   MOSUNNY   81  59  47 SE14      30.12F
DAYTONA BEACH  PTSUNNY   81  59  47 E8        30.12F
DELAND           N/A     81  57  44 E9        30.14R
JFK SPACE CTR  MOSUNNY   81  57  43 E12       30.12S
TITUSVILLE     MOSUNNY   81  55  41 E15       30.14S
CAPE CANAVERAL MOSUNNY   81  58  45 E8        30.11S
PATRICK AFB    MOSUNNY   81  59  47 E15       30.12S
MELBOURNE      MOSUNNY   81  58  45 E14       30.12S
VERO BEACH     SUNNY     81  58  45 E13       30.12S
FT PIERCE      SUNNY     80  58  46 E13       30.11S
STUART         MOSUNNY   84  70  61 E15       30.12S

STATION/POSITION SKY/WX   TEMP    WIND        PRES    WAVE   SWELL
                          AIR SEA DIR/SP/G            HT/PER HT/PER
                          (F)     (DEG/KT/KT) (MB)    (FT/S) (FT/S)
28.5N   80.2W              80 81   80/ 14/ 17 1020.3S
28.9N   78.5W              78 79   70/ 10/ 12 1020.9R
TRIDENT PIER               81                   N/A
28.4N   80.5W                 81                N/A     3/ 4
27.5N   80.2W                 80                N/A     3/ 4

$$
FLZ050-056-061-142-242-148-248-149-249-151-251-155-255-
160-260-250000-
WEST CENTRAL FLORIDA

CITY           SKY/WX    TMP DP  RH WIND       PRES   REMARKS
CRYSTAL RIVER  FAIR      82  63  51 SE6       30.08F
INVERNESS      FAIR      82  63  51 SE10G20   30.10R
BROOKSVILLE    MOSUNNY   79  66  64 E8        30.09R
ZEPHYRHILLS    FAIR      82  59  44 E15G21    30.09S
CLEARWATER AIR FAIR      81  64  57 W6        30.07S
ST PETE CLEARW SUNNY     84  61  45 W7        30.07S
TAMPA INTL     MOSUNNY   84  67  56 W8        30.07S
TAMPA EXEC     MOSUNNY   86  68  54 E10G20    30.07R
PLANT CITY     SUNNY     86  70  58 E14G21    30.10R
MACDILL AFB    SUNNY     85  65  51 NW5       30.06S
PETER O KNIGHT SUNNY     88  68  51 W7        30.07R
ST PETERSBURG  SUNNY     84  60  44 NW7       30.05S
SARASOTA       SUNNY     85  61  44 W8        30.06S
VENICE         NOT AVBL

STATION/POSITION SKY/WX   TEMP    WIND        PRES    WAVE   SWELL
                          AIR SEA DIR/SP/G            HT/PER HT/PER
                          (F)     (DEG/KT/KT) (MB)    (FT/S) (FT/S)
27.3N   84.2W                 81                N/A
CLEARWATER BEACH           81                   N/A
MIDDLE TAMPA BAY           81                   N/A
VENICE                     81 84  320/ 12/ 12 1018.1F

$$
FLZ066-069-070-075>078-162-262-165-265-250000-
SOUTHWEST FLORIDA AND KEYS

CITY           SKY/WX    TMP DP  RH WIND       PRES   REMARKS
PUNTA GORDA    SUNNY     88  64  44 NW8       30.07S
FT MYERS       SUNNY     88  64  44 NW13      30.04S
SOUTHWEST INTL SUNNY     89  64  43 NW9       30.04F
NAPLES         SUNNY     86  69  56 NW9       30.05S
MARATHON       SUNNY     84  71  65 E8        30.06S
KEY WEST NAS   LGT RAIN  83  73  72 SE12      30.07R
KEY WEST INTL  LGT RAIN  80  76  87 CALM      30.07R

STATION/POSITION SKY/WX   TEMP    WIND        PRES    WAVE   SWELL
                          AIR SEA DIR/SP/G            HT/PER HT/PER
                          (F)     (DEG/KT/KT) (MB)    (FT/S) (FT/S)
NAPLES                        87              1017.7F
26.0N   85.6W              80 82   70/ 14/ 16 1018.6    2/ 3
DRY TORTUGAS               82      60/ 13/ 14 1017.8S
SAND KEY                   83     110/ 11/ 13 1018.4R
LONG KEY                   83 88   40/  4/  5 1018.4R
MOLASSES REEF                      80/ 12       N/A

$$
FLZ067-068-071>074-168-172>174-250000-
SOUTHEAST FLORIDA

CITY           SKY/WX    TMP DP  RH WIND       PRES   REMARKS
W PALM BEACH   TSTM      82  69  65 E16G24    30.09S
FT LAUDER-EXEC PTSUNNY   81  69  67 E14       30.09R
FT LAUDERDALE  CLOUDY    80  71  74 SE14      30.09R
POMPANO BEACH  CLOUDY    83  70  64 E15       30.08R
PEMBROKE PINES CLOUDY    80  70  71 E8        30.10R
OPA LOCKA      CLOUDY    82  71  69 SE10      30.08R
MIAMI          PTSUNNY   81  69  67 E10       30.09R
WEST KENDALL   CLOUDY    82  71  69 E7        30.08R
HOMESTEAD      MOSUNNY   82  73  73 E7        30.08R

STATION/POSITION SKY/WX   TEMP    WIND        PRES    WAVE   SWELL
                          AIR SEA DIR/SP/G            HT/PER HT/PER
                          (F)     (DEG/KT/KT) (MB)    (FT/S) (FT/S)
PORT EVERGLADES            81      80/  9/ 13 1018.3F
VIRGINIA KEY               82                   N/A
LAKE WORTH                 80                   N/A
FOWEY ROCKS                82 85   90/  9/ 10 1018.9F
SETTLEMENT POINT           81      70/ 17/ 20 1020.0S

$$





USA.gov is the U.S. government's official web portal to all federal, state and local government web resources and services.